Location: Bletchingley
(51.2333°N, 0.1000°W)
Time: 22:29:44
(UTC+00:00)

CREW DRAGON DEMO-1 DEB - Pass Details

Date: 18 September 2020
Orbit: 361 x 362 km, 51.6° (Epoch: 31 October)

Event Time Altitude Azimuth Distance (km) Brightness Sun altitude
Rises 18:41:16 0° 262° (W) 2,192 8.4 -6.2°
Reaches altitude 10° 18:43:17 10° 263° (W) 1,347 7.1 -6.5°
Maximum altitude 18:46:18 87° 353° (N) 369 2.8 -6.9°
Drops below altitude 10° 18:49:20 10° 82° (E) 1,353 5.0 -7.4°
Enters shadow 18:49:28 - 82° (E) 1,413 5.1 -7.4°
